[Date Prev][Date Next][Thread Prev][Thread Next] - [Date Index][Thread Index][Author Index]

2 Line ISS Keps 8-30



ISS
1 25544U 98067A   02242.09062500  .00029414  00000-0  37628-3 0   969
2 25544  51.6389  42.0842 0016238 198.8729 314.4588 15.58813479215550


----
Via the sarex mailing list at AMSAT.ORG courtesy of AMSAT-NA.
To unsubscribe, send "unsubscribe sarex" to Majordomo@amsat.org



AMSAT Top AMSAT Home